Wind_Speed
61 65 66 65 60 53 50 45 39 40 43 45 48 49 48 46 46 45 46 47 48 50 50 47 40 33 31 32 33 33 34 33 30 31 34 35 36 35 35 36 38 42 44
64 65 64 60 54 49 46 38 38 42 44 46 48 48 45 44 44 45 45 45 44 45 47 46 39 31 28 27 27 29 31 33 32 32 33 36 38 37 35 35 36 40 44
65 63 61 55 49 48 40 36 39 43 45 47 48 45 43 43 44 44 43 41 41 40 41 42 38 30 26 22 23 25 26 28 32 33 35 36 38 40 39 37 37 39 43
62 60 56 50 46 45 36 37 40 43 45 47 47 43 43 43 44 45 44 41 41 39 36 36 35 30 26 24 22 19 22 24 27 29 33 36 37 41 43 42 40 41 44
59 57 52 46 45 42 35 37 41 43 46 47 47 43 42 44 45 44 44 44 41 38 36 34 33 31 25 22 19 18 16 19 23 25 29 34 36 40 41 46 44 44 45
56 53 48 45 45 39 34 37 41 43 46 47 46 43 42 43 45 45 46 44 42 39 36 34 32 31 28 22 18 16 13 12 18 23 26 30 36 37 41 44 47 46 46
53 49 45 44 45 36 33 37 41 43 46 47 46 44 42 41 41 43 45 45 44 42 38 34 32 30 29 28 24 20 17 13 11 10 20 26 29 33 39 42 47 49 50
52 47 43 44 44 33 33 37 40 43 46 47 46 45 42 40 39 39 43 44 44 44 40 36 33 30 28 26 25 21 16 14 11 7 6 14 22 26 31 41 46 50 51
51 46 41 43 42 32 34 36 39 43 46 47 46 45 43 41 38 38 39 42 44 45 41 37 34 31 28 25 24 24 23 17 14 8 5 3 12 21 28 36 43 49 51
51 45 41 42 42 32 34 36 39 43 45 47 45 44 42 42 40 38 39 42 43 42 40 39 35 30 29 27 25 24 23 24 18 13 10 6 7 17 26 35 41 46 49
51 47 40 41 43 32 34 36 37 41 44 45 44 43 41 41 41 41 43 44 43 41 40 36 33 31 30 30 29 27 24 22 23 19 13 12 10 14 23 33 37 43 45
51 49 40 38 40 34 31 35 36 38 41 42 42 41 40 40 41 42 45 46 46 44 40 35 34 32 31 29 28 29 31 26 24 23 21 13 13 14 20 28 34 39 43
51 51 44 38 37 38 29 32 35 37 39 41 42 40 39 39 40 41 43 46 46 46 42 37 35 33 31 31 35 34 34 31 27 25 25 23 15 14 17 23 29 35 40
52 51 48 40 36 39 31 30 34 35 39 43 44 42 41 41 41 43 43 44 46 45 41 38 35 33 30 30 30 31 30 29 30 33 29 25 25 16 16 20 24 30 34
54 52 51 43 38 38 33 29 34 36 41 45 47 45 43 43 46 49 47 47 48 46 41 37 34 34 28 28 30 30 24 23 19 19 21 21 23 21 17 17 22 29 32
54 52 52 47 40 38 39 30 35 38 40 44 47 48 49 49 48 47 47 48 48 48 41 35 34 34 32 36 39 36 33 29 24 19 16 12 8 12 17 14 20 29 33
53 53 51 51 43 36 41 39 34 36 40 41 44 46 48 50 50 50 49 47 45 47 44 37 37 40 43 43 40 39 36 34 32 29 19 15 8 9 10 16 14 27 35
52 52 51 51 50 42 37 41 41 34 36 39 41 44 46 47 47 49 50 48 42 47 52 50 46 44 42 42 42 41 38 37 31 27 24 23 14 22 16 18 16 23 35
51 52 52 50 51 49 42 37 40 42 35 38 41 42 44 45 46 47 48 47 46 47 49 51 52 48 45 44 43 45 45 43 41 38 39 34 35 30 28 25 20 20 36
50 50 52 51 50 49 49 45 39 38 41 38 37 39 41 41 41 44 47 49 50 50 49 49 50 51 49 47 44 48 50 45 42 37 38 41 45 43 39 34 26 20 38
48 48 49 51 50 49 48 50 47 44 40 38 41 41 40 41 42 44 46 47 49 51 52 51 50 48 51 51 45 50 54 52 48 48 41 42 48 43 44 36 29 23 34
45 47 46 48 50 49 48 48 47 48 47 45 44 41 40 40 41 42 44 46 50 52 52 52 53 53 55 55 49 50 52 53 52 46 37 35 41 38 42 41 39 23 34
40 44 45 45 46 48 49 48 47 46 46 46 46 45 45 44 44 44 44 46 46 47 48 50 52 53 54 58 49 44 48 50 52 52 48 34 33 35 35 28 25 36 47
36 39 42 44 43 44 45 46 47 47 46 45 44 44 45 46 46 47 47 46 46 46 47 47 48 51 51 52 53 54 49 50 49 46 47 42 32 34 29 33 31 47 49
32 35 37 40 42 42 42 42 43 44 45 45 46 45 44 44 44 44 44 45 46 46 46 47 46 46 47 48 49 49 49 50 48 45 40 42 44 35 30 21 27 26 29
28 30 33 35 38 40 41 40 41 41 41 41 41 42 43 43 44 44 43 44 44 44 45 45 45 44 43 43 45 45 44 43 45 43 40 38 36 33 32 31 23 22 26
Wind_Direction
335 334 334 335 337 339 340 341 344 343 342 342 341 339 340 338 339 340 340 338 335 333 332 329 323 311 297 287 280 273 268 264 260 253 248 246 245 240 235 230 225 221 219
336 336 337 338 341 342 342 346 347 346 345 345 344 344 343 341 343 344 343 340 337 338 337 336 332 324 309 294 282 275 267 261 254 254 248 242 240 237 231 226 221 216 215
338 339 339 341 344 344 346 349 348 349 348 348 347 347 345 346 347 347 346 343 345 348 346 343 341 339 334 322 295 277 266 262 256 252 246 242 236 232 228 223 217 214 212
340 340 341 346 347 348 350 351 350 351 351 350 350 352 349 349 350 349 349 347 348 350 355 357 350 343 339 337 331 304 272 261 254 246 240 240 235 228 224 221 215 211 208
342 342 345 349 350 351 353 352 353 353 353 353 354 355 353 352 352 352 351 353 350 350 356 3 5 358 346 342 335 335 308 267 255 247 239 237 236 230 222 218 213 208 206
345 345 350 351 352 353 355 355 355 356 355 355 356 358 358 355 355 354 354 355 355 355 355 359 6 12 10 359 353 347 347 324 265 246 240 235 236 231 221 217 210 206 204
348 349 353 353 354 354 357 357 357 358 358 357 359 2 1 358 358 358 359 360 0 358 357 357 0 6 11 9 3 355 354 344 341 277 241 233 232 227 218 214 207 201 202
352 353 355 356 356 357 359 359 360 1 1 0 2 3 2 2 2 0 2 4 4 2 1 360 0 2 6 9 15 10 360 357 349 334 271 237 228 219 213 208 202 197 199
356 356 357 358 360 2 2 1 3 4 3 4 5 4 3 4 6 6 7 7 5 4 4 4 3 4 6 8 12 20 25 19 16 10 359 243 212 198 197 193 193 193 195
359 358 358 1 4 4 5 5 6 7 7 7 6 5 4 6 10 11 12 13 10 8 6 6 8 11 15 17 16 20 27 32 33 40 50 75 157 181 179 182 186 189 192
2 1 360 2 6 4 6 8 9 9 10 10 9 8 7 10 11 12 14 16 15 14 16 17 17 19 24 27 30 32 31 36 43 50 62 77 112 149 171 176 180 186 188
5 3 2 4 8 7 8 10 12 13 12 14 15 12 12 14 14 15 17 18 19 24 29 26 24 24 28 32 34 37 38 42 49 56 62 82 103 136 157 172 179 183 187
8 6 6 7 9 11 11 12 13 15 16 18 21 20 20 19 19 21 22 22 23 26 29 26 27 29 36 39 38 38 39 43 54 62 70 71 89 129 149 166 176 184 189
11 10 9 10 12 12 13 17 17 18 18 22 23 25 24 23 25 28 30 30 28 30 32 30 27 30 40 40 39 41 49 58 65 63 65 72 75 88 152 162 171 178 182
13 14 14 14 15 17 19 23 21 21 23 24 24 29 29 28 28 29 31 32 32 33 35 33 32 34 34 30 27 32 39 30 33 37 44 60 70 81 90 163 173 176 176
15 17 17 18 18 20 24 28 25 24 25 26 26 26 28 28 30 33 32 32 32 33 36 35 33 38 37 31 30 29 30 29 25 26 20 17 39 77 90 108 166 179 178
17 20 21 22 22 24 26 26 24 26 26 27 28 29 30 30 29 32 34 36 34 35 39 36 35 34 35 36 33 34 34 35 31 35 46 40 52 100 113 104 129 169 178
19 22 24 25 27 27 27 30 30 27 27 29 31 32 33 32 33 31 34 36 37 36 38 38 35 35 39 42 43 41 39 37 31 32 33 29 82 66 102 103 107 154 168
19 23 25 27 30 31 30 30 31 32 31 31 32 32 35 34 35 34 35 40 42 42 40 38 39 42 46 50 49 47 45 45 43 46 46 60 65 73 75 82 91 137 156
20 22 26 29 30 32 34 35 34 33 35 36 36 37 38 39 38 39 39 39 41 43 44 44 42 43 50 54 52 50 51 48 46 51 49 55 66 66 71 72 78 122 146
20 21 25 30 31 33 34 37 38 38 37 35 37 39 38 39 39 41 42 43 43 42 44 44 45 49 51 56 56 54 55 56 55 63 61 53 56 59 58 68 81 108 142
19 21 24 28 32 34 35 36 37 39 40 39 38 37 38 37 39 40 41 44 44 43 42 42 42 40 48 56 61 60 59 58 61 68 74 65 58 64 69 92 77 93 128
16 18 21 26 29 33 36 37 37 38 39 40 41 41 41 41 40 41 40 41 43 44 43 42 43 43 42 46 59 67 67 65 63 63 74 84 60 54 76 89 76 105 118
14 15 18 22 26 29 31 35 38 38 38 39 39 40 41 42 41 41 42 42 42 42 43 42 42 42 44 45 45 45 55 66 69 70 71 86 79 73 76 99 113 119 114
10 13 15 18 21 25 28 30 31 34 37 38 38 39 39 39 39 40 40 41 41 42 42 43 43 43 42 43 48 45 43 45 58 72 77 73 87 103 89 101 109 109 119
6 9 11 14 17 20 23 24 27 29 32 35 35 36 37 38 38 38 39 40 41 40 40 40 41 42 43 44 45 46 47 44 45 58 70 79 85 97 108 107 97 124 128
Height
5637 5624 5610 5595 5580 5568 5558 5548 5539 5531 5522 5512 5501 5489 5478 5467 5457 5448 5437 5427 5416 5404 5392 5381 5371 5364 5359 5355 5353 5352 5353 5354 5357 5358 5362 5365 5369 5375 5381 5388 5395 5402 5409
5630 5616 5601 5587 5575 5564 5554 5545 5536 5528 5518 5508 5496 5484 5473 5463 5453 5443 5433 5422 5411 5399 5385 5373 5361 5353 5347 5343 5340 5339 5339 5340 5343 5345 5349 5352 5358 5364 5371 5378 5384 5392 5400
5623 5609 5595 5582 5570 5560 5550 5542 5534 5524 5514 5503 5492 5481 5470 5460 5450 5440 5429 5418 5407 5395 5382 5369 5357 5348 5340 5335 5331 5328 5328 5328 5330 5333 5336 5340 5345 5352 5360 5368 5375 5383 5391
5617 5603 5590 5577 5567 5557 5548 5540 5531 5521 5511 5500 5489 5477 5467 5456 5446 5436 5426 5415 5404 5393 5381 5367 5355 5345 5338 5331 5326 5321 5319 5319 5319 5322 5324 5327 5333 5339 5348 5356 5366 5374 5383
5612 5599 5586 5574 5564 5554 5546 5538 5529 5519 5509 5497 5486 5476 5465 5454 5443 5434 5424 5412 5402 5391 5379 5367 5355 5344 5335 5329 5323 5317 5313 5311 5310 5311 5314 5317 5321 5328 5336 5345 5356 5366 5376
5608 5595 5583 5572 5562 5552 5545 5537 5528 5518 5507 5496 5485 5474 5463 5452 5441 5431 5421 5411 5400 5389 5378 5367 5357 5346 5335 5326 5320 5314 5309 5305 5302 5303 5305 5309 5312 5317 5326 5334 5345 5358 5369
5605 5592 5581 5571 5560 5551 5544 5536 5527 5517 5506 5495 5484 5473 5463 5453 5441 5430 5420 5410 5399 5389 5378 5368 5357 5347 5337 5327 5318 5311 5306 5302 5299 5297 5298 5300 5303 5307 5316 5326 5336 5349 5360
5603 5590 5580 5569 5559 5550 5543 5535 5527 5517 5506 5495 5483 5472 5463 5453 5443 5432 5421 5410 5399 5389 5379 5369 5359 5350 5340 5331 5322 5313 5307 5301 5297 5294 5293 5293 5296 5301 5307 5316 5329 5343 5356
5601 5589 5580 5569 5559 5550 5543 5535 5527 5517 5506 5495 5484 5474 5464 5454 5444 5434 5423 5412 5401 5391 5381 5371 5362 5352 5343 5334 5326 5318 5309 5302 5298 5294 5291 5290 5291 5296 5302 5313 5325 5338 5350
5601 5590 5579 5569 5559 5550 5544 5536 5527 5517 5507 5497 5486 5475 5465 5455 5445 5436 5426 5415 5405 5394 5384 5374 5365 5356 5347 5339 5330 5322 5314 5307 5301 5297 5294 5292 5292 5296 5303 5312 5323 5336 5347
5602 5590 5579 5570 5560 5551 5544 5537 5529 5520 5510 5501 5489 5479 5468 5458 5447 5437 5428 5418 5409 5399 5388 5379 5371 5363 5354 5344 5334 5326 5319 5313 5307 5302 5299 5298 5298 5301 5306 5315 5324 5335 5346
5603 5591 5580 5571 5562 5553 5546 5539 5531 5523 5515 5505 5494 5483 5472 5461 5450 5440 5431 5420 5411 5402 5392 5384 5377 5367 5358 5349 5340 5333 5326 5319 5314 5309 5306 5305 5305 5307 5312 5319 5327 5336 5344
5605 5592 5581 5572 5564 5555 5548 5542 5534 5527 5519 5509 5498 5488 5477 5466 5456 5447 5436 5425 5415 5405 5396 5388 5381 5372 5364 5356 5349 5342 5335 5329 5323 5318 5314 5312 5312 5314 5317 5323 5329 5337 5346
5607 5595 5583 5573 5566 5557 5550 5544 5538 5530 5521 5512 5502 5491 5480 5471 5462 5452 5442 5432 5422 5411 5403 5396 5387 5378 5371 5364 5357 5351 5344 5338 5333 5328 5325 5321 5319 5319 5322 5326 5332 5339 5346
5611 5599 5586 5576 5568 5561 5552 5547 5540 5532 5524 5514 5504 5495 5486 5476 5464 5454 5447 5438 5428 5418 5411 5404 5397 5389 5381 5373 5366 5359 5353 5347 5342 5337 5333 5330 5328 5326 5326 5329 5334 5340 5347
5615 5603 5591 5580 5571 5563 5555 5549 5543 5535 5527 5518 5510 5500 5490 5480 5472 5464 5455 5445 5436 5428 5421 5413 5405 5397 5389 5381 5374 5366 5359 5353 5347 5342 5337 5333 5332 5332 5331 5331 5334 5341 5349
5620 5608 5597 5585 5576 5568 5560 5552 5546 5540 5533 5525 5517 5509 5499 5489 5480 5471 5462 5455 5447 5440 5430 5421 5413 5405 5397 5390 5381 5373 5367 5360 5353 5347 5342 5337 5334 5333 5333 5334 5337 5341 5350
5625 5614 5604 5593 5582 5573 5565 5559 5551 5545 5539 5532 5525 5517 5508 5500 5492 5483 5474 5467 5460 5450 5439 5430 5422 5414 5407 5399 5391 5384 5376 5368 5362 5354 5348 5342 5339 5337 5336 5337 5339 5343 5351
5631 5621 5611 5600 5590 5580 5572 5565 5558 5551 5544 5538 5531 5525 5517 5510 5501 5493 5485 5477 5468 5458 5449 5441 5433 5425 5418 5410 5403 5394 5386 5379 5371 5365 5358 5352 5348 5345 5344 5344 5346 5349 5356
5636 5627 5617 5607 5598 5589 5580 5572 5565 5559 5552 5546 5540 5534 5527 5521 5515 5506 5496 5486 5477 5469 5461 5453 5445 5438 5431 5423 5416 5408 5399 5392 5385 5378 5372 5367 5361 5359 5357 5356 5357 5360 5365
5642 5633 5624 5615 5606 5597 5589 5582 5574 5566 5560 5554 5547 5541 5535 5529 5522 5515 5507 5498 5490 5481 5473 5465 5458 5452 5443 5436 5430 5423 5414 5407 5400 5394 5389 5384 5379 5375 5374 5372 5374 5377 5380
5647 5639 5631 5623 5614 5606 5598 5590 5583 5576 5569 5562 5555 5549 5543 5537 5531 5523 5516 5509 5500 5491 5484 5477 5469 5461 5454 5447 5443 5437 5429 5422 5417 5412 5407 5403 5401 5399 5396 5395 5396 5398 5400
5652 5645 5638 5630 5622 5614 5606 5599 5592 5585 5578 5572 5565 5559 5552 5546 5539 5532 5525 5518 5511 5505 5498 5491 5483 5475 5466 5458 5453 5449 5443 5438 5432 5428 5423 5421 5421 5418 5419 5419 5418 5423 5423
5656 5650 5643 5636 5629 5621 5615 5608 5601 5594 5587 5580 5574 5568 5561 5555 5548 5541 5535 5528 5522 5515 5508 5502 5494 5487 5481 5473 5466 5461 5456 5452 5449 5446 5442 5440 5439 5438 5438 5439 5441 5442 5449
5659 5653 5648 5642 5635 5628 5621 5615 5609 5602 5596 5590 5583 5577 5570 5563 5557 5551 5545 5539 5532 5526 5520 5514 5507 5500 5494 5488 5482 5476 5471 5468 5464 5462 5460 5457 5455 5457 5459 5458 5461 5464 5468
5661 5656 5651 5646 5640 5634 5628 5622 5616 5609 5603 5597 5591 5585 5579 5573 5567 5560 5554 5548 5542 5536 5530 5524 5518 5513 5507 5502 5494 5490 5486 5482 5479 5476 5474 5473 5472 5472 5472 5474 5476 5478 5480